Vorticity
7 7 7 7 7 8 8 8 8 8 10 9 7 9 10 13 13 11 11 3 2 2 5 6 5 6 -1 -4 4 25 9 19 11 5 4 1 4 11 1 7 12 13 17 5 -2
6 6 7 7 7 7 7 7 8 8 8 9 11 8 9 11 12 13 9 12 4 2 5 5 6 6 -0 1 7 15 11 30 -8 -1 6 5 1 2 8 10 -4 9 20 4 14
6 6 6 7 7 8 8 8 8 8 8 9 9 12 8 10 11 11 12 9 11 4 3 3 4 4 3 5 10 14 17 -1 10 6 12 19 5 4 1 -5 1 3 15 9 -10
7 6 6 6 7 8 8 8 8 8 8 8 9 9 11 8 8 12 11 13 9 10 2 4 4 4 -0 8 5 3 16 -3 -0 3 7 8 7 2 -4 11 0 3 24 15 1
8 7 7 6 7 7 7 8 8 9 9 9 10 9 11 9 5 12 10 11 8 12 3 4 8 1 -0 6 10 6 7 14 6 -3 5 3 -2 -3 7 5 6 7 23 6 7
7 7 7 7 7 7 8 9 8 8 9 10 11 11 11 9 8 4 19 12 11 11 7 3 5 -1 6 -0 3 -2 7 9 4 8 15 15 13 22 19 8 7 8 6 7 11
6 7 8 7 7 7 7 8 9 10 9 10 10 14 11 4 7 4 4 18 11 10 8 4 5 -3 -2 1 6 12 5 5 4 11 16 3 6 13 3 6 7 10 7 10 6
5 4 5 7 6 7 7 7 7 8 10 10 11 12 12 7 5 9 9 18 13 8 9 5 4 5 5 1 14 7 3 7 16 4 9 7 10 4 4 3 7 13 8 -1 0
7 6 6 5 5 7 7 7 7 7 8 8 12 15 6 6 5 6 10 12 10 8 10 4 2 3 3 4 6 8 7 10 1 8 5 12 7 13 8 14 1 5 2 13 7
6 8 8 6 6 6 6 7 7 7 7 7 7 8 9 8 11 11 7 10 9 7 9 2 1 0 4 0 0 9 3 -7 2 -10 13 2 18 1 15 10 9 2 4 9 8
9 9 7 9 7 5 6 7 7 7 7 8 1 -4 21 1 7 18 10 10 8 8 5 7 3 1 4 2 5 -7 4 11 -5 6 16 13 13 11 6 11 15 12 4 2 5
7 9 12 12 10 7 6 6 7 6 9 11 18 7 6 5 2 22 11 8 8 7 6 5 3 2 1 -1 5 5 -1 -1 5 -14 21 9 -0 13 6 7 7 6 14 11 -3
10 9 10 9 14 12 6 7 7 7 8 17 12 18 9 5 4 27 12 3 6 10 13 -6 5 12 -1 1 -3 2 2 1 -7 0 21 7 17 19 7 6 3 5 10 17 13
13 13 12 13 11 14 9 8 7 9 18 21 22 18 22 9 9 16 16 19 3 9 8 19 16 6 25 6 0 2 -0 -1 -2 22 10 18 -2 5 23 14 7 7 6 5 13
8 10 10 10 12 11 11 9 9 11 17 19 21 20 13 2 28 1 3 -1 3 21 3 5 35 3 9 27 6 5 9 7 -1 37 -1 9 5 10 0 29 21 20 14 8 17
10 10 9 11 11 11 16 13 10 10 13 13 15 23 7 5 20 17 4 4 3 7 21 -2 -4 10 11 23 25 23 2 23 32 11 10 6 -2 11 14 12 -1 -8 10 20 1
9 9 10 11 15 13 13 13 4 0 15 18 15 10 -1 14 -0 6 12 10 -6 14 6 12 3 5 -3 12 19 6 8 3 2 5 5 22 19 -8 0 11 13 23 22 12 17
13 11 12 14 13 16 17 15 -1 14 -6 1 7 14 16 7 -1 -2 0 14 8 -8 21 7 21 2 12 11 23 8 2 -10 3 3 10 1 6 13 2 16 14 11 23 6 23
13 11 11 13 17 19 22 -11 11 15 7 14 3 15 24 9 -14 10 5 0 3 12 -13 16 4 6 7 5 8 18 4 -10 1 12 8 6 20 9 12 11 8 13 11 13 17
12 12 12 14 16 19 25 -15 -3 10 9 7 16 8 24 23 11 -7 9 29 35 16 11 17 18 6 13 5 7 -1 14 12 7 -2 1 7 7 -1 8 8 14 13 14 9 8
12 13 11 14 12 18 12 5 -18 9 0 2 10 4 12 13 12 10 9 8 -17 27 20 5 -1 20 20 19 10 5 8 7 25 4 12 4 10 2 10 9 -4 3 1 4 10
14 14 10 13 17 14 13 8 11 16 -16 7 -4 -3 -8 -6 19 11 6 -8 -17 21 20 12 3 8 9 16 20 8 1 5 -1 7 13 17 8 27 19 6 2 3 1 1 19
12 12 9 8 2 10 9 14 16 16 15 26 5 5 7 3 4 19 12 11 24 -4 25 26 24 4 14 21 23 13 9 6 12 3 4 -10 2 19 8 9 2 5 2 3 5
15 5 12 7 8 7 6 4 -0 3 9 15 15 13 13 9 -2 -6 6 14 26 24 8 2 4 -9 -8 7 1 -7 3 7 7 10 8 0 10 7 5 11 6 5 4 3 7
11 10 8 -2 7 10 9 -2 4 -0 -1 -0 9 14 19 22 23 19 5 1 7 19 20 12 9 17 4 14 14 22 15 12 9 4 2 20 16 13 19 21 12 0 6 10 -3
10 9 10 11 11 9 4 2 2 3 3 5 8 5 3 7 -0 4 21 22 12 28 19 20 13 22 13 11 7 5 3 0 2 2 6 7 10 16 6 11 6 2 4 7 4
10 11 10 8 9 9 9 11 13 18 27 22 13 13 6 6 6 6 13 8 2 13 16 7 8 -1 14 5 8 15 -0 15 15 15 12 12 6 8 8 13 9 4 6 3 4
Height
3156 3155 3155 3154 3154 3153 3153 3152 3152 3152 3152 3152 3152 3153 3154 3155 3156 3158 3160 3162 3165 3167 3169 3170 3171 3172 3172 3172 3170 3168 3168 3167 3170 3171 3172 3173 3174 3176 3177 3177 3176 3176 3176 3178 3178
3157 3156 3155 3154 3153 3153 3153 3152 3151 3151 3151 3151 3151 3151 3152 3153 3154 3156 3158 3159 3163 3166 3168 3170 3171 3172 3172 3172 3171 3169 3169 3168 3171 3172 3173 3173 3174 3177 3178 3178 3178 3177 3177 3178 3179
3157 3156 3155 3154 3153 3153 3152 3152 3151 3151 3150 3150 3150 3150 3151 3152 3153 3153 3155 3157 3161 3164 3167 3170 3171 3171 3172 3172 3172 3171 3171 3172 3173 3173 3173 3173 3174 3177 3178 3179 3179 3179 3178 3179 3181
3157 3156 3155 3154 3153 3153 3152 3151 3151 3150 3149 3149 3149 3149 3149 3151 3154 3152 3153 3156 3159 3162 3166 3169 3170 3171 3172 3172 3172 3173 3172 3173 3173 3174 3174 3174 3175 3176 3179 3179 3180 3179 3179 3181 3182
3157 3156 3155 3153 3153 3152 3151 3151 3150 3149 3149 3148 3148 3148 3149 3150 3151 3151 3152 3154 3157 3161 3165 3168 3170 3171 3172 3172 3172 3173 3173 3172 3173 3174 3174 3175 3175 3176 3178 3179 3180 3180 3180 3182 3183
3156 3155 3154 3153 3152 3151 3150 3150 3149 3148 3148 3147 3147 3147 3148 3150 3150 3150 3151 3153 3156 3159 3164 3167 3169 3170 3171 3172 3172 3173 3173 3173 3173 3173 3173 3174 3175 3176 3179 3179 3180 3181 3182 3183 3185
3156 3154 3153 3152 3150 3149 3149 3148 3147 3146 3146 3145 3145 3145 3147 3149 3149 3150 3151 3152 3154 3158 3162 3165 3167 3170 3171 3171 3171 3172 3174 3173 3174 3174 3173 3174 3175 3176 3178 3180 3180 3181 3183 3185 3186
3154 3153 3151 3150 3148 3147 3147 3146 3145 3145 3144 3144 3143 3144 3145 3146 3147 3148 3150 3151 3153 3156 3159 3162 3165 3169 3170 3171 3172 3172 3174 3174 3174 3175 3174 3176 3176 3176 3177 3179 3180 3181 3183 3184 3187
3152 3151 3150 3148 3146 3145 3145 3144 3144 3143 3143 3143 3144 3143 3144 3144 3145 3146 3148 3150 3153 3155 3158 3161 3164 3167 3169 3170 3172 3172 3173 3173 3174 3174 3174 3175 3175 3175 3176 3178 3180 3181 3183 3184 3186
3150 3148 3147 3146 3144 3143 3142 3142 3141 3141 3141 3142 3142 3145 3143 3143 3143 3144 3146 3148 3151 3153 3157 3159 3163 3165 3167 3168 3170 3171 3172 3172 3173 3174 3172 3172 3173 3173 3174 3176 3178 3181 3183 3184 3185
3146 3144 3143 3142 3141 3140 3140 3139 3142 3141 3139 3139 3139 3139 3140 3141 3141 3142 3144 3147 3149 3152 3154 3157 3161 3161 3165 3167 3168 3170 3171 3171 3172 3172 3171 3171 3171 3172 3172 3173 3175 3178 3181 3183 3185
3142 3141 3139 3138 3137 3135 3135 3136 3136 3137 3135 3134 3134 3135 3137 3138 3140 3140 3143 3146 3147 3149 3152 3157 3156 3161 3163 3165 3167 3168 3169 3170 3170 3171 3171 3169 3170 3170 3170 3171 3172 3175 3178 3181 3184
3137 3136 3136 3134 3133 3133 3132 3133 3133 3132 3131 3130 3129 3131 3134 3137 3137 3138 3141 3143 3146 3148 3150 3152 3156 3158 3160 3162 3165 3166 3167 3168 3171 3169 3169 3169 3170 3168 3168 3169 3169 3171 3173 3176 3179
3133 3132 3131 3130 3132 3129 3129 3129 3130 3130 3128 3127 3125 3128 3130 3133 3136 3137 3140 3144 3145 3147 3150 3151 3152 3154 3156 3159 3162 3164 3166 3167 3168 3169 3169 3169 3169 3166 3166 3166 3166 3168 3170 3172 3174
3128 3127 3127 3126 3125 3125 3127 3127 3127 3130 3129 3125 3124 3124 3127 3132 3133 3135 3138 3141 3143 3144 3148 3149 3149 3152 3153 3155 3159 3162 3164 3166 3166 3166 3167 3168 3170 3165 3164 3164 3164 3165 3166 3168 3170
3123 3122 3122 3123 3122 3123 3123 3124 3127 3131 3124 3123 3123 3123 3126 3129 3131 3133 3136 3139 3141 3142 3143 3146 3148 3149 3151 3152 3155 3159 3163 3163 3164 3165 3166 3167 3169 3163 3162 3163 3163 3163 3163 3164 3167
3119 3117 3117 3117 3119 3118 3120 3123 3127 3124 3122 3122 3122 3123 3125 3128 3130 3132 3134 3136 3138 3141 3141 3143 3145 3146 3148 3149 3152 3155 3159 3162 3164 3165 3163 3164 3166 3162 3161 3161 3161 3160 3160 3162 3163
3115 3113 3112 3113 3113 3114 3116 3120 3121 3117 3118 3119 3119 3121 3123 3126 3128 3130 3131 3133 3136 3137 3139 3141 3143 3143 3145 3146 3148 3151 3156 3155 3158 3159 3160 3162 3161 3160 3159 3159 3159 3158 3158 3160 3161
3111 3109 3108 3108 3109 3109 3113 3114 3113 3114 3115 3116 3117 3119 3120 3122 3126 3127 3129 3130 3131 3134 3138 3138 3139 3140 3142 3143 3147 3148 3151 3154 3155 3157 3158 3159 3158 3157 3157 3157 3157 3157 3158 3158 3160
3107 3106 3105 3104 3105 3106 3108 3109 3110 3110 3112 3114 3115 3115 3116 3118 3122 3123 3125 3125 3127 3129 3133 3135 3137 3137 3138 3141 3143 3145 3149 3151 3152 3154 3154 3155 3155 3155 3155 3155 3156 3157 3157 3158 3159
3104 3103 3102 3101 3102 3103 3104 3106 3108 3108 3110 3113 3112 3113 3114 3115 3117 3119 3121 3123 3124 3124 3129 3132 3134 3136 3135 3136 3138 3142 3144 3146 3148 3149 3147 3150 3151 3152 3153 3154 3155 3156 3157 3158 3159
3100 3101 3099 3100 3102 3101 3101 3103 3105 3105 3107 3109 3110 3111 3112 3112 3113 3114 3115 3118 3120 3123 3125 3127 3131 3132 3132 3132 3133 3136 3139 3142 3143 3147 3147 3147 3148 3147 3149 3151 3153 3154 3155 3156 3157
3098 3098 3098 3098 3099 3099 3100 3101 3101 3102 3104 3106 3108 3108 3109 3110 3112 3110 3111 3114 3116 3119 3120 3122 3126 3129 3130 3132 3131 3133 3135 3138 3140 3142 3143 3145 3146 3146 3147 3148 3150 3152 3153 3154 3154
3096 3096 3096 3095 3096 3097 3098 3099 3099 3100 3101 3102 3103 3104 3105 3106 3108 3107 3107 3108 3110 3113 3115 3119 3121 3122 3123 3124 3127 3130 3131 3133 3136 3138 3138 3139 3141 3142 3144 3146 3147 3149 3150 3151 3151
3093 3092 3093 3093 3093 3094 3095 3095 3096 3097 3098 3099 3099 3100 3101 3102 3103 3103 3103 3103 3105 3106 3109 3114 3115 3117 3119 3121 3123 3125 3128 3129 3131 3132 3134 3134 3135 3136 3138 3140 3143 3144 3146 3147 3147
3089 3089 3090 3089 3089 3090 3090 3091 3092 3092 3094 3095 3096 3095 3097 3097 3099 3098 3098 3099 3099 3101 3104 3108 3110 3113 3116 3118 3120 3123 3125 3126 3127 3128 3129 3130 3131 3132 3134 3135 3138 3139 3141 3143 3144
3084 3084 3085 3085 3085 3086 3086 3086 3085 3086 3088 3088 3088 3089 3091 3093 3092 3092 3093 3094 3095 3097 3100 3104 3106 3109 3113 3115 3118 3120 3119 3120 3121 3123 3124 3125 3127 3128 3130 3132 3134 3135 3137 3137 3138